Location: Kearney
(40.6990°N, 99.0810°W)
Time: 08:24:59
(UTC-05:00)

CZ-2C R/B - Pass Details

Date: 18 December 2017
Orbit: 641 x 704 km, 98.4° (Epoch: 26 April)

Event Time Altitude Azimuth Distance (km) Brightness Sun altitude
Rises 17:51:43 0° 20° (NNE) 3,064 6.7 -7.7°
Reaches altitude 10° 17:54:04 10° 27° (NNE) 2,152 5.9 -8.1°
Maximum altitude 17:58:34 44° 99° (E) 964 4.2 -8.9°
Drops below altitude 10° 18:03:06 10° 172° (S) 2,161 6.5 -9.7°
Sets 18:05:26 0° 178° (S) 3,077 7.4 -10.1°
